"startDT [UTC]","vpos","CH4 [ppm]","stdev(CH4) [ppm]","CO2 [ppm]","stdev(CO2) [ppm]","H2O_reported [%]","stdev(H2O_reported)","CavityPressure [torr]","CavityTemp [C]","OutletValve","CH4_dry [ppm]","CO2_dry [ppm]","DasTemp [C]","EtalonTemp [C]","WarmBoxTemp [C]","MPVPosition","T_ECpre [C]","T_EC1 [C]","T_EC2 [C]","p_inlet [hPa]","p_in [hPa]","p_out [hPa]","T_inlet [C]","RH_inlet [%]","dwpt_inlet [C]","T_vent [C]","RH_vent [%]","dwpt_vent [C]","flow_vent [l min-1]","flow_inlet [l min-1]","dwpt_sample [C]","T_room [C]"
2016-01-24 00:00:00,0.0,1.96035,0.00035,410.175,0.037,0.0729,0.0019,140.000,45.000,31326.80934,1.96177,410.534,30.880,45.071,45.000,0.00,0.08,-272.75,-272.80,-2,512,-933,16.6,3.0,-28.7,16.9,3.1,-28.4,5.73,1.96,-20.8,23.4
2016-01-24 00:01:00,0.0,1.96042,0.00045,410.172,0.027,0.0725,0.0016,139.999,45.000,31326.44356,1.96182,410.530,30.876,45.071,45.000,0.00,0.08,-272.75,-272.80,-2,512,-933,16.6,3.0,-28.7,16.9,3.1,-28.3,5.73,1.83,-20.8,23.4
2016-01-24 00:02:00,0.0,1.96057,0.00029,410.178,0.025,0.0728,0.0011,139.998,45.000,31326.56591,1.96196,410.537,30.875,45.071,45.000,0.00,0.08,-272.75,-272.81,-2,512,-933,16.6,3.0,-28.7,16.9,3.1,-28.3,5.73,1.77,-20.8,23.4
2016-01-24 00:03:00,0.0,1.96030,0.00029,410.160,0.028,0.0730,0.0015,140.001,45.000,31327.75267,1.96172,410.521,30.875,45.071,45.000,0.00,0.08,-272.75,-272.80,-2,512,-933,16.6,3.0,-28.7,16.9,3.1,-28.3,5.73,1.88,-20.8,23.4
2016-01-24 00:04:00,0.0,1.96059,0.00031,410.188,0.033,0.0728,0.0016,140.000,45.000,31327.74647,1.96201,410.547,30.875,45.071,45.000,0.00,0.08,-272.75,-272.80,-3,512,-933,16.6,3.0,-28.7,16.9,3.1,-28.3,5.73,1.98,-20.8,23.4
2016-01-24 00:05:00,0.0,1.96059,0.00035,410.188,0.036,0.0731,0.0016,139.999,45.000,31325.29655,1.96199,410.548,30.875,45.071,45.000,0.00,0.08,-272.76,-272.80,-2,512,-933,16.6,3.0,-28.7,16.9,3.1,-28.4,5.73,1.88,-20.8,23.4
2016-01-24 00:06:00,0.0,1.96036,0.00036,410.190,0.029,0.0729,0.0021,140.000,45.000,31325.09459,1.96180,410.551,30.875,45.071,45.000,0.00,0.08,-272.75,-272.81,-1,512,-933,16.6,3.0,-28.8,16.9,3.1,-28.4,5.73,1.76,-20.8,23.4
2016-01-24 00:07:00,0.0,1.96030,0.00037,410.199,0.033,0.0725,0.0012,140.000,45.000,31325.80351,1.96168,410.556,30.874,45.071,45.000,0.00,0.08,-272.74,-272.81,-2,512,-933,16.6,3.0,-28.8,16.9,3.1,-28.3,5.73,1.83,-20.8,23.4
2016-01-24 00:08:00,0.0,1.96013,0.00034,410.200,0.034,0.0725,0.0015,140.001,45.000,31326.27494,1.96155,410.558,30.875,45.071,45.000,0.00,0.08,-272.75,-272.81,-3,512,-933,16.6,3.0,-28.9,16.9,3.1,-28.4,5.73,1.95,-20.8,23.4
2016-01-24 00:09:00,0.0,1.96029,0.00029,410.197,0.041,0.0722,0.0014,139.999,45.000,31326.33847,1.96165,410.552,30.874,45.071,45.000,0.00,0.08,-272.75,-272.81,-2,512,-933,16.6,3.0,-28.8,16.9,3.1,-28.4,5.73,1.93,-20.8,23.5
2016-01-24 00:10:00,0.0,1.96033,0.00038,410.199,0.031,0.0716,0.0012,139.998,45.000,31327.74447,1.96175,410.554,30.838,45.071,45.000,0.00,0.08,-272.75,-272.80,-2,512,-933,16.6,3.0,-28.8,16.9,3.1,-28.4,5.73,1.80,-20.8,23.4
2016-01-24 00:11:00,0.0,1.96047,0.00034,410.214,0.035,0.0728,0.0016,139.997,45.000,31324.73616,1.96183,410.573,30.820,45.071,45.000,0.00,0.08,-272.75,-272.80,-3,512,-933,16.6,3.0,-28.8,16.9,3.1,-28.4,5.73,1.78,-20.8,23.4
2016-01-24 00:12:00,0.0,1.96070,0.00032,410.222,0.038,0.0721,0.0013,139.998,45.000,31324.73868,1.96212,410.577,30.813,45.072,45.001,0.00,0.08,-272.76,-272.81,-2,512,-933,16.6,3.0,-28.8,16.9,3.1,-28.4,5.73,1.91,-20.8,23.5
2016-01-24 00:13:00,0.0,1.96077,0.00034,410.225,0.034,0.0726,0.0016,139.999,45.000,31323.96619,1.96217,410.583,30.802,45.071,45.000,0.00,0.08,-272.75,-272.81,-1,512,-933,16.6,3.0,-28.8,16.9,3.1,-28.4,5.73,1.97,-20.8,23.4
2016-01-24 00:14:00,0.0,1.96070,0.00034,410.221,0.026,0.0720,0.0018,140.001,45.000,31325.76071,1.96210,410.575,30.809,45.072,45.000,0.00,0.08,-272.75,-272.80,-2,512,-933,16.6,3.0,-28.8,16.9,3.1,-28.4,5.73,1.85,-20.8,23.4
2016-01-24 00:15:00,0.0,1.96058,0.00044,410.210,0.025,0.0717,0.0019,139.999,45.000,31324.49576,1.96195,410.565,30.794,45.071,45.000,0.00,0.08,-272.75,-272.81,-2,512,-933,16.6,3.0,-28.8,16.8,3.0,-28.5,5.73,1.76,-20.8,23.4
2016-01-24 00:16:00,0.0,1.96041,0.00041,410.194,0.031,0.0719,0.0020,139.999,45.000,31325.07388,1.96180,410.549,30.757,45.071,45.000,0.00,0.08,-272.75,-272.81,-1,512,-933,16.6,3.0,-28.9,16.9,3.0,-28.5,5.73,1.87,-20.8,23.4
2016-01-24 00:17:00,0.0,1.96073,0.00031,410.204,0.034,0.0717,0.0017,140.000,45.000,31322.30411,1.96210,410.556,30.755,45.071,45.000,0.00,0.08,-272.75,-272.79,-2,512,-933,16.6,3.0,-28.8,16.9,3.0,-28.5,5.73,1.98,-20.8,23.4
2016-01-24 00:18:00,0.0,1.96063,0.00023,410.221,0.029,0.0717,0.0024,139.997,45.000,31321.67182,1.96201,410.576,30.750,45.072,45.000,0.00,0.08,-272.76,-272.80,-3,512,-933,16.6,3.0,-28.9,16.9,3.0,-28.5,5.73,1.90,-20.8,23.4
2016-01-24 00:19:00,0.0,1.96077,0.00032,410.225,0.028,0.0714,0.0017,139.997,45.000,31320.90430,1.96216,410.577,30.750,45.071,45.000,0.00,0.08,-272.75,-272.81,-2,512,-933,16.6,3.0,-29.0,16.8,3.0,-28.5,5.73,1.77,-20.9,23.4
2016-01-24 00:20:00,0.0,1.96113,0.00031,410.250,0.034,0.0718,0.0013,139.998,45.000,31321.62216,1.96251,410.604,30.750,45.071,45.000,0.00,0.08,-272.74,-272.81,-1,512,-933,16.6,3.0,-28.9,16.8,3.0,-28.5,5.73,1.82,-20.9,23.4
2016-01-24 00:21:00,0.0,1.96135,0.00044,410.230,0.040,0.0714,0.0018,139.998,45.000,31320.43051,1.96272,410.582,30.754,45.071,45.000,0.00,0.08,-272.75,-272.81,-2,512,-933,16.6,3.0,-28.9,16.9,3.0,-28.5,5.73,1.95,-20.8,23.4
2016-01-24 00:22:00,0.0,1.96174,0.00044,410.279,0.032,0.0721,0.0017,140.000,45.000,31321.57892,1.96310,410.634,30.750,45.071,45.000,0.00,0.08,-272.75,-272.80,-2,512,-933,16.6,3.0,-28.9,16.8,3.0,-28.5,5.73,1.94,-20.9,23.4
2016-01-24 00:23:00,0.0,1.96158,0.00044,410.290,0.030,0.0721,0.0016,140.001,45.000,31322.83056,1.96297,410.645,30.754,45.071,45.000,0.00,0.08,-272.75,-272.80,-1,512,-933,16.6,3.0,-28.8,16.9,3.0,-28.5,5.73,1.80,-20.9,23.4
2016-01-24 00:24:00,0.0,1.96181,0.00030,410.290,0.033,0.0713,0.0016,139.996,45.000,31319.17421,1.96320,410.643,30.762,45.071,45.000,0.00,0.08,-272.75,-272.80,-2,512,-933,16.6,3.0,-28.8,16.9,3.0,-28.5,5.73,1.78,-20.8,23.4
2016-01-24 00:25:00,0.0,1.96160,0.00029,410.275,0.021,0.0715,0.0015,139.997,45.000,31319.98997,1.96301,410.629,30.767,45.071,45.000,0.00,0.08,-272.76,-272.81,-3,512,-933,16.6,3.0,-28.9,16.9,3.0,-28.5,5.73,1.91,-20.8,23.4
2016-01-24 00:26:00,0.0,1.96156,0.00037,410.272,0.028,0.0709,0.0017,140.002,45.000,31320.46692,1.96289,410.621,30.761,45.071,45.000,0.00,0.08,-272.76,-272.81,-2,512,-933,16.6,3.0,-28.9,16.8,3.0,-28.5,5.73,1.97,-20.8,23.4
2016-01-24 00:27:00,0.0,1.96173,0.00025,410.273,0.030,0.0718,0.0012,139.999,45.000,31319.21952,1.96312,410.626,30.759,45.071,45.000,0.00,0.08,-272.75,-272.80,-1,512,-933,16.6,3.0,-28.9,16.9,3.0,-28.5,5.73,1.85,-20.8,23.4
2016-01-24 00:28:00,0.0,1.96134,0.00038,410.283,0.026,0.0712,0.0015,139.998,45.000,31319.89781,1.96274,410.635,30.750,45.071,45.000,0.00,0.08,-272.75,-272.80,-2,512,-933,16.6,3.0,-28.9,16.9,3.0,-28.5,5.73,1.76,-20.9,23.4
2016-01-24 00:29:00,0.0,1.96159,0.00031,410.276,0.035,0.0719,0.0017,139.998,45.000,31318.79802,1.96297,410.630,30.750,45.071,45.000,0.00,0.08,-272.75,-272.81,-2,512,-932,16.6,3.0,-29.0,16.9,3.0,-28.5,5.73,1.86,-20.9,23.4
2016-01-24 00:30:00,0.0,1.96156,0.00048,410.266,0.035,0.0714,0.0017,140.000,45.000,31318.69174,1.96292,410.618,30.751,45.071,45.000,0.00,0.08,-272.75,-272.80,-2,512,-932,16.6,3.0,-28.9,16.9,3.0,-28.5,5.73,1.97,-20.8,23.4
2016-01-24 00:31:00,0.0,1.96169,0.00031,410.288,0.029,0.0716,0.0018,140.000,45.000,31316.74487,1.96309,410.643,30.757,45.071,45.000,0.00,0.08,-272.76,-272.80,-2,512,-932,16.6,3.0,-28.9,16.9,3.0,-28.5,5.73,1.91,-20.9,23.4
2016-01-24 00:32:00,0.0,1.96180,0.00033,410.311,0.042,0.0714,0.0014,139.997,45.000,31315.54702,1.96315,410.662,30.750,45.071,45.000,0.00,0.08,-272.75,-272.81,-3,512,-932,16.6,3.0,-28.8,16.9,3.0,-28.5,5.73,1.78,-20.9,23.4
2016-01-24 00:33:00,0.0,1.96218,0.00047,410.323,0.036,0.0715,0.0013,140.000,45.000,31317.10794,1.96357,410.677,30.750,45.071,45.000,0.00,0.08,-272.75,-272.81,-2,512,-932,16.6,3.0,-28.9,16.8,3.0,-28.5,5.73,1.81,-20.9,23.4
2016-01-24 00:34:00,0.0,1.96252,0.00039,410.337,0.042,0.0716,0.0022,139.998,45.000,31316.76022,1.96389,410.690,30.740,45.071,45.000,0.00,0.08,-272.75,-272.81,-1,512,-932,16.6,3.0,-28.8,16.8,3.1,-28.4,5.73,1.95,-20.9,23.4
2016-01-24 00:35:00,0.0,1.96245,0.00035,410.318,0.049,0.0724,0.0015,140.000,45.000,31316.77081,1.96385,410.677,30.725,45.071,45.000,0.00,0.08,-272.75,-272.81,-2,512,-932,16.6,3.0,-28.8,16.8,3.1,-28.4,5.73,1.95,-20.9,23.4
2016-01-24 00:36:00,0.0,1.96265,0.00045,410.322,0.023,0.0726,0.0021,140.002,45.000,31316.11845,1.96406,410.680,30.737,45.071,45.000,0.00,0.08,-272.75,-272.81,-2,512,-932,16.6,3.0,-28.8,16.8,3.1,-28.4,5.73,1.81,-20.9,23.4
2016-01-24 00:37:00,0.0,1.96282,0.00058,410.335,0.029,0.0732,0.0013,139.999,45.000,31313.05621,1.96423,410.696,30.746,45.071,45.000,0.00,0.08,-272.75,-272.80,-2,512,-932,16.6,3.0,-28.8,16.8,3.1,-28.4,5.73,1.77,-20.9,23.4
2016-01-24 00:38:00,0.0,1.96243,0.00044,410.319,0.025,0.0727,0.0018,140.002,45.000,31315.21052,1.96385,410.679,30.722,45.071,45.000,0.00,0.08,-272.75,-272.80,-2,512,-932,16.6,3.0,-28.8,16.9,3.1,-28.4,5.73,1.90,-20.9,23.4
2016-01-24 00:39:00,0.0,1.96183,0.00039,410.292,0.035,0.0723,0.0015,140.000,45.000,31313.29672,1.96324,410.650,30.688,45.071,45.000,0.00,0.08,-272.76,-272.81,-3,512,-932,16.5,3.0,-28.8,16.8,3.1,-28.3,5.73,1.97,-20.9,23.4
2016-01-24 00:40:00,0.0,1.96195,0.00033,410.292,0.028,0.0723,0.0015,139.999,45.000,31311.31508,1.96333,410.648,30.690,45.071,45.000,0.00,0.08,-272.75,-272.80,-2,512,-932,16.5,3.0,-28.8,16.8,3.1,-28.4,5.73,1.85,-20.9,23.4
2016-01-24 00:41:00,0.0,1.96180,0.00032,410.289,0.031,0.0731,0.0016,140.000,45.000,31310.58295,1.96322,410.649,30.689,45.071,45.000,0.00,0.08,-272.74,-272.80,-2,512,-932,16.5,3.0,-28.8,16.8,3.1,-28.4,5.73,1.76,-20.9,23.4
2016-01-24 00:42:00,0.0,1.96194,0.00040,410.301,0.026,0.0729,0.0021,140.001,45.000,31310.70688,1.96334,410.661,30.688,45.071,45.000,0.00,0.08,-272.75,-272.81,-3,512,-932,16.5,3.0,-28.8,16.9,3.1,-28.3,5.73,1.86,-20.9,23.4
2016-01-24 00:43:00,0.0,1.96225,0.00041,410.286,0.029,0.0730,0.0018,139.998,45.000,31309.37176,1.96364,410.646,30.688,45.071,45.000,0.00,0.08,-272.75,-272.80,-2,511,-932,16.5,3.0,-28.7,16.8,3.1,-28.3,5.73,1.98,-20.9,23.4
2016-01-24 00:44:00,0.0,1.96210,0.00036,410.298,0.034,0.0731,0.0015,139.999,45.000,31310.20588,1.96354,410.658,30.686,45.071,45.000,0.00,0.08,-272.75,-272.80,-2,512,-932,16.5,3.0,-28.7,16.8,3.1,-28.3,5.73,1.89,-20.9,23.4
2016-01-24 00:45:00,0.0,1.96197,0.00035,410.284,0.030,0.0736,0.0018,140.000,45.000,31310.20884,1.96339,410.650,30.670,45.071,45.000,0.00,0.08,-272.75,-272.80,-2,512,-932,16.5,3.0,-28.7,16.8,3.1,-28.3,5.73,1.77,-20.9,23.4
2016-01-24 00:46:00,0.0,1.96155,0.00040,410.292,0.037,0.0731,0.0015,139.998,45.000,31309.33704,1.96296,410.651,30.647,45.071,45.000,0.00,0.08,-272.75,-272.81,-3,512,-932,16.5,3.0,-28.8,16.8,3.1,-28.3,5.73,1.83,-20.9,23.4
2016-01-24 00:47:00,0.0,1.96159,0.00046,410.298,0.031,0.0725,0.0015,139.998,45.000,31308.95517,1.96299,410.656,30.638,45.071,45.000,0.00,0.08,-272.75,-272.81,-2,511,-932,16.5,3.0,-28.8,16.8,3.1,-28.4,5.73,1.97,-20.9,23.4
2016-01-24 00:48:00,0.0,1.96161,0.00042,410.293,0.030,0.0732,0.0016,139.998,45.000,31307.74769,1.96303,410.654,30.626,45.071,45.000,0.00,0.08,-272.75,-272.80,-2,512,-932,16.5,3.0,-28.7,16.8,3.1,-28.3,5.73,1.92,-20.9,23.4
2016-01-24 00:49:00,0.0,1.96092,0.00037,410.240,0.030,0.0724,0.0014,140.001,45.000,31310.98258,1.96233,410.598,30.625,45.071,45.000,0.00,0.08,-272.75,-272.81,-3,512,-932,16.5,3.0,-28.7,16.8,3.1,-28.3,5.73,1.78,-21.0,23.4
2016-01-24 00:50:00,0.0,1.96131,0.00042,410.264,0.034,0.0719,0.0013,139.999,45.000,31308.56938,1.96266,410.618,30.625,45.071,45.000,0.00,0.08,-272.76,-272.80,-2,511,-932,16.5,3.0,-28.8,16.8,3.1,-28.3,5.73,1.80,-21.0,23.4
2016-01-24 00:51:00,0.0,1.96178,0.00048,410.291,0.029,0.0725,0.0019,139.998,45.000,31307.20958,1.96319,410.648,30.606,45.071,45.000,0.00,0.08,-272.75,-272.80,-2,512,-932,16.5,3.0,-28.7,16.8,3.1,-28.3,5.73,1.95,-21.0,23.4
2016-01-24 00:52:00,0.0,1.96178,0.00034,410.284,0.034,0.0737,0.0021,140.000,45.000,31306.42880,1.96321,410.647,30.571,45.071,45.000,0.00,0.08,-272.76,-272.81,-3,511,-932,16.5,3.0,-28.7,16.8,3.1,-28.3,5.73,1.95,-21.0,23.4
2016-01-24 00:53:00,0.0,1.96163,0.00053,410.283,0.034,0.0736,0.0023,140.000,45.000,31305.93560,1.96306,410.648,30.602,45.071,45.000,0.00,0.08,-272.76,-272.81,-3,511,-932,16.5,3.0,-28.7,16.8,3.1,-28.3,5.73,1.79,-21.0,23.4
2016-01-24 00:54:00,0.0,1.96172,0.00041,410.281,0.036,0.0729,0.0015,140.000,45.000,31305.70584,1.96311,410.639,30.620,45.071,45.000,0.00,0.08,-272.75,-272.80,-2,511,-932,16.5,3.0,-28.7,16.8,3.1,-28.3,5.73,1.78,-21.0,23.4
2016-01-24 00:55:00,0.0,1.96135,0.00029,410.259,0.025,0.0736,0.0019,140.000,45.000,31305.54661,1.96279,410.622,30.613,45.071,45.000,0.00,0.08,-272.75,-272.80,-2,511,-932,16.5,3.0,-28.7,16.8,3.1,-28.3,5.73,1.92,-21.0,23.3
2016-01-24 00:56:00,0.0,1.96137,0.00029,410.269,0.027,0.0724,0.0014,139.999,45.000,31301.76260,1.96275,410.627,30.611,45.071,45.000,0.00,0.08,-272.76,-272.81,-3,511,-932,16.4,3.0,-28.8,16.8,3.1,-28.3,5.73,1.97,-21.0,23.3
2016-01-24 00:57:00,0.0,1.96180,0.00046,410.290,0.031,0.0728,0.0020,140.000,45.000,31301.37631,1.96319,410.648,30.610,45.071,44.999,0.00,0.08,-272.75,-272.80,-2,511,-932,16.5,3.0,-28.7,16.8,3.1,-28.3,5.73,1.82,-21.0,23.3
2016-01-24 00:58:00,0.0,1.96180,0.00036,410.285,0.039,0.0732,0.0019,139.999,45.000,31297.94212,1.96321,410.646,30.592,45.071,45.000,0.00,0.08,-272.74,-272.80,-2,511,-932,16.4,3.1,-28.7,16.8,3.1,-28.3,5.73,1.77,-21.0,23.3
2016-01-24 00:59:00,0.0,1.96160,0.00050,410.279,0.038,0.0723,0.0013,139.998,45.000,31298.77425,1.96300,410.636,30.564,45.071,45.000,0.00,0.08,-272.75,-272.81,-3,511,-932,16.4,3.0,-28.7,16.7,3.1,-28.3,5.73,1.90,-21.0,23.3
2016-01-24 01:00:00,0.0,1.96191,0.00045,410.291,0.027,0.0737,0.0018,139.999,45.000,31297.16805,1.96333,410.654,30.544,45.071,45.000,0.00,0.08,-272.75,-272.81,-2,511,-932,16.4,3.1,-28.7,16.7,3.1,-28.3,5.73,1.98,-21.0,23.3
2016-01-24 01:01:00,0.0,1.96147,0.00039,410.293,0.021,0.0736,0.0023,139.999,45.000,31296.20746,1.96292,410.657,30.531,45.071,45.000,0.00,0.08,-272.75,-272.80,-2,511,-931,16.4,3.1,-28.6,16.7,3.1,-28.3,5.73,1.85,-21.0,23.3
2016-01-24 01:02:00,0.0,1.96145,0.00043,410.280,0.031,0.0722,0.0016,139.998,45.000,31296.83474,1.96281,410.637,30.529,45.071,45.000,0.00,0.27,-271.40,-272.57,-3,511,-931,16.4,3.1,-28.7,16.7,3.1,-28.4,5.43,1.89,-25.7,23.3
2016-01-24 01:03:00,0.0,1.96177,0.00047,410.275,0.021,0.0734,0.0015,139.999,45.000,31295.74817,1.96322,410.638,30.518,45.071,45.000,0.00,0.08,-272.76,-272.81,-3,511,-932,16.4,3.1,-28.7,16.7,3.1,-28.3,5.73,1.88,-21.1,23.3
2016-01-24 01:04:00,0.0,1.96177,0.00052,410.296,0.025,0.0733,0.0015,139.999,45.000,31296.62243,1.96318,410.658,30.501,45.071,45.000,0.00,0.08,-272.75,-272.80,-2,511,-931,16.4,3.1,-28.7,16.7,3.1,-28.3,5.73,1.99,-21.1,23.3
2016-01-24 01:05:00,0.0,1.96175,0.00024,410.281,0.030,0.0737,0.0020,139.999,45.000,31297.43011,1.96315,410.644,30.503,45.071,45.000,0.00,0.08,-272.75,-272.81,-2,511,-931,16.4,3.1,-28.7,16.7,3.1,-28.3,5.73,1.87,-21.1,23.3
2016-01-24 01:06:00,0.0,1.96152,0.00034,410.270,0.027,0.0740,0.0014,139.998,45.000,31298.83476,1.96296,410.636,30.501,45.071,45.000,0.00,0.08,-272.76,-272.81,-3,511,-931,16.4,3.1,-28.6,16.7,3.1,-28.2,5.73,1.76,-21.1,23.3
2016-01-24 01:07:00,0.0,1.96185,0.00034,410.292,0.028,0.0740,0.0016,140.002,45.000,31297.58763,1.96329,410.657,30.500,45.071,45.000,0.00,0.08,-272.75,-272.80,-2,511,-931,16.4,3.1,-28.6,16.7,3.2,-28.2,5.73,1.87,-21.1,23.3
2016-01-24 01:08:00,0.0,1.96177,0.00041,410.285,0.039,0.0743,0.0017,139.999,45.000,31297.84752,1.96317,410.651,30.497,45.071,45.000,0.00,0.08,-272.75,-272.79,-2,511,-931,16.4,3.1,-28.6,16.7,3.2,-28.2,5.73,1.99,-21.1,23.3
2016-01-24 01:09:00,0.0,1.96156,0.00031,410.281,0.040,0.0741,0.0015,139.998,45.000,31297.56458,1.96303,410.647,30.471,45.071,45.000,0.00,0.08,-272.76,-272.81,-3,511,-931,16.4,3.1,-28.6,16.7,3.1,-28.2,5.73,1.88,-21.1,23.3
2016-01-24 01:10:00,0.0,1.96157,0.00038,410.270,0.031,0.0742,0.0018,139.997,45.000,31295.88047,1.96299,410.636,30.439,45.071,45.000,0.00,0.08,-272.75,-272.80,-2,511,-931,16.4,3.1,-28.6,16.7,3.1,-28.2,5.73,1.75,-21.1,23.3
2016-01-24 01:11:00,0.0,1.96154,0.00045,410.274,0.029,0.0740,0.0017,140.002,45.000,31295.22922,1.96298,410.639,30.438,45.071,45.000,0.00,0.08,-272.74,-272.80,-2,511,-931,16.4,3.1,-28.6,16.7,3.2,-28.2,5.73,1.86,-21.1,23.3
2016-01-24 01:12:00,0.0,1.96169,0.00038,410.289,0.028,0.0739,0.0017,139.999,45.000,31294.85181,1.96312,410.653,30.433,45.071,45.000,0.00,0.08,-272.75,-272.80,-3,511,-931,16.4,3.1,-28.6,16.7,3.1,-28.2,5.73,1.98,-21.1,23.3
2016-01-24 01:13:00,0.0,1.96160,0.00031,410.274,0.020,0.0749,0.0018,139.996,45.000,31292.24549,1.96303,410.644,30.432,45.071,45.000,0.00,0.08,-272.76,-272.81,-2,511,-931,16.4,3.1,-28.5,16.7,3.2,-28.2,5.73,1.88,-21.2,23.3
2016-01-24 01:14:00,0.0,1.96196,0.00044,410.277,0.038,0.0744,0.0017,139.999,45.000,31289.75521,1.96341,410.643,30.438,45.071,45.000,0.00,0.08,-272.74,-272.80,-2,511,-931,16.4,3.1,-28.5,16.7,3.2,-28.1,5.73,1.75,-21.2,23.3
2016-01-24 01:15:00,0.0,1.96153,0.00034,410.283,0.025,0.0748,0.0013,140.000,45.000,31291.41800,1.96296,410.653,30.437,45.071,45.000,0.00,0.08,-272.75,-272.81,-3,511,-931,16.4,3.1,-28.5,16.7,3.2,-28.1,5.73,1.86,-21.2,23.3
2016-01-24 01:16:00,0.0,1.96145,0.00033,410.285,0.028,0.0751,0.0017,139.999,45.000,31292.43154,1.96292,410.654,30.408,45.071,45.000,0.00,0.08,-272.76,-272.81,-2,511,-931,16.4,3.1,-28.5,16.7,3.2,-28.1,5.73,1.99,-21.2,23.3
2016-01-24 01:17:00,0.0,1.96158,0.00047,410.288,0.030,0.0741,0.0018,140.000,45.000,31291.92402,1.96300,410.654,30.384,45.071,45.000,0.00,0.08,-272.75,-272.80,-1,511,-931,16.4,3.1,-28.5,16.7,3.2,-28.1,5.73,1.87,-21.2,23.2
2016-01-24 01:18:00,0.0,1.96179,0.00051,410.303,0.024,0.0737,0.0023,139.999,45.000,31288.67250,1.96320,410.666,30.373,45.071,45.000,0.00,0.08,-272.75,-272.80,-2,511,-931,16.3,3.1,-28.5,16.7,3.2,-28.1,5.73,1.76,-21.2,23.2
2016-01-24 01:19:00,0.0,1.96172,0.00039,410.280,0.029,0.0748,0.0016,139.999,45.000,31287.43602,1.96316,410.650,30.357,45.071,45.000,0.00,0.08,-272.75,-272.80,-3,511,-931,16.3,3.1,-28.5,16.7,3.2,-28.1,5.73,1.88,-21.2,23.2
2016-01-24 01:20:00,0.0,1.96228,0.00034,410.315,0.030,0.0748,0.0021,140.000,44.999,31284.36435,1.96373,410.684,30.359,45.071,45.000,0.00,0.08,-272.76,-272.80,-2,511,-931,16.3,3.1,-28.5,16.7,3.2,-28.1,5.73,1.99,-21.2,23.2
2016-01-24 01:21:00,0.0,1.96233,0.00058,410.330,0.031,0.0747,0.0015,139.998,45.000,31283.38529,1.96378,410.700,30.334,45.071,45.000,0.00,0.08,-272.75,-272.80,-2,511,-931,16.3,3.2,-28.4,16.7,3.2,-28.0,5.73,1.86,-21.2,23.2
2016-01-24 01:22:00,0.0,1.96204,0.00046,410.326,0.036,0.0753,0.0019,139.999,45.000,31284.95186,1.96350,410.699,30.311,45.072,45.000,0.00,0.08,-272.75,-272.80,-3,511,-931,16.3,3.2,-28.5,16.6,3.2,-28.0,5.73,1.76,-21.2,23.2
2016-01-24 01:23:00,0.0,1.96188,0.00051,410.304,0.036,0.0747,0.0015,139.999,45.000,31286.95644,1.96332,410.671,30.300,45.071,45.000,0.00,0.08,-272.75,-272.81,-2,511,-931,16.3,3.1,-28.5,16.6,3.2,-28.0,5.73,1.89,-21.2,23.2
2016-01-24 01:24:00,0.0,1.96235,0.00041,410.345,0.035,0.0748,0.0015,139.998,45.000,31284.40341,1.96377,410.714,30.303,45.071,45.000,0.00,0.08,-272.75,-272.79,-2,511,-931,16.3,3.2,-28.5,16.6,3.2,-28.0,5.73,1.98,-21.2,23.2
2016-01-24 01:25:00,0.0,1.96222,0.00037,410.332,0.028,0.0754,0.0013,140.000,45.000,31284.20658,1.96370,410.705,30.299,45.071,45.000,0.00,0.08,-272.74,-272.80,-3,511,-931,16.3,3.2,-28.4,16.6,3.2,-28.1,5.73,1.85,-21.3,23.2
2016-01-24 01:26:00,0.0,1.96226,0.00035,410.312,0.034,0.0758,0.0012,139.997,45.000,31283.15430,1.96370,410.687,30.285,45.071,45.000,0.00,0.08,-272.75,-272.81,-2,511,-931,16.3,3.2,-28.4,16.6,3.2,-28.0,5.73,1.76,-21.2,23.2
2016-01-24 01:27:00,0.0,1.96237,0.00040,410.318,0.025,0.0760,0.0022,139.998,45.000,31281.31804,1.96383,410.691,30.282,45.071,45.000,0.00,0.08,-272.75,-272.80,-2,511,-931,16.3,3.2,-28.4,16.6,3.2,-28.0,5.73,1.91,-21.3,23.2
2016-01-24 01:28:00,0.0,1.96245,0.00054,410.326,0.034,0.0750,0.0020,139.999,45.000,31279.18618,1.96392,410.697,30.287,45.071,45.000,0.00,0.08,-272.75,-272.80,-3,511,-931,16.2,3.2,-28.4,16.6,3.2,-28.0,5.73,1.99,-21.3,23.2
2016-01-24 01:29:00,0.0,1.96209,0.00033,410.299,0.033,0.0751,0.0016,139.999,45.000,31281.76018,1.96356,410.670,30.274,45.071,45.000,0.00,0.08,-272.75,-272.80,-2,510,-931,16.3,3.2,-28.4,16.6,3.2,-28.0,5.73,1.82,-21.3,23.2
2016-01-24 01:30:00,0.0,1.96200,0.00029,410.292,0.032,0.0752,0.0014,139.998,45.000,31282.35670,1.96344,410.663,30.250,45.071,45.000,0.00,0.08,-272.75,-272.81,-1,511,-931,16.3,3.2,-28.4,16.6,3.2,-28.0,5.73,1.77,-21.3,23.2
2016-01-24 01:31:00,0.0,1.96209,0.00032,410.305,0.040,0.0751,0.0018,140.000,45.000,31283.05095,1.96356,410.676,30.250,45.071,45.000,0.00,0.08,-272.75,-272.80,-2,511,-931,16.3,3.2,-28.5,16.6,3.2,-28.1,5.73,1.93,-21.3,23.2
2016-01-24 01:32:00,0.0,1.96185,0.00038,410.301,0.037,0.0759,0.0020,140.000,45.000,31283.08025,1.96332,410.675,30.243,45.071,45.000,0.00,0.08,-272.75,-272.80,-2,511,-931,16.3,3.2,-28.4,16.6,3.2,-28.1,5.73,1.97,-21.3,23.2
2016-01-24 01:33:00,0.0,1.96195,0.00042,410.304,0.026,0.0757,0.0014,139.998,45.000,31282.02736,1.96339,410.678,30.220,45.071,45.000,0.00,0.08,-272.76,-272.81,-1,511,-931,16.3,3.2,-28.5,16.6,3.2,-28.1,5.73,1.81,-21.3,23.2
2016-01-24 01:34:00,0.0,1.96184,0.00027,410.305,0.029,0.0752,0.0014,140.001,45.000,31283.50509,1.96332,410.676,30.197,45.071,45.000,0.00,0.08,-272.75,-272.80,-2,511,-931,16.3,3.1,-28.5,16.6,3.2,-28.1,5.73,1.78,-21.3,23.2
2016-01-24 01:35:00,0.0,1.96206,0.00036,410.333,0.031,0.0745,0.0019,139.997,45.000,31282.56581,1.96349,410.700,30.188,45.072,45.000,0.00,0.08,-272.75,-272.80,-2,510,-931,16.3,3.1,-28.5,16.6,3.2,-28.1,5.73,1.96,-21.3,23.1
2016-01-24 01:36:00,0.0,1.96194,0.00041,410.300,0.043,0.0747,0.0021,139.998,45.000,31283.97664,1.96335,410.670,30.189,45.072,45.000,0.00,0.08,-272.76,-272.80,-1,511,-931,16.3,3.1,-28.5,16.6,3.2,-28.1,5.73,1.95,-21.3,23.1
2016-01-24 01:37:00,0.0,1.96197,0.00031,410.321,0.038,0.0747,0.0021,139.999,45.000,31281.41761,1.96343,410.690,30.186,45.072,45.001,0.00,0.08,-272.75,-272.80,-2,511,-931,16.3,3.1,-28.5,16.6,3.2,-28.1,5.73,1.78,-21.4,23.2
2016-01-24 01:38:00,0.0,1.96182,0.00040,410.316,0.021,0.0744,0.0018,139.997,45.000,31281.48955,1.96325,410.683,30.175,45.072,45.000,0.00,0.08,-272.74,-272.80,-2,510,-931,16.3,3.1,-28.6,16.6,3.2,-28.2,5.73,1.82,-21.3,23.1
2016-01-24 01:39:00,0.0,1.96185,0.00033,410.323,0.032,0.0736,0.0018,139.998,45.000,31280.08994,1.96330,410.686,30.146,45.072,45.000,0.00,0.08,-272.75,-272.81,-1,511,-931,16.3,3.1,-28.6,16.6,3.2,-28.2,5.73,1.98,-21.4,23.1
2016-01-24 01:40:00,0.0,1.96215,0.00036,410.318,0.028,0.0737,0.0016,139.997,45.000,31279.55827,1.96351,410.682,30.153,45.072,45.001,0.00,0.08,-272.76,-272.81,-2,511,-931,16.2,3.1,-28.6,16.6,3.2,-28.2,5.73,1.92,-21.4,23.1
2016-01-24 01:41:00,0.0,1.96219,0.00030,410.337,0.026,0.0739,0.0022,139.999,45.000,31279.54083,1.96362,410.701,30.168,45.072,45.000,0.00,0.08,-272.74,-272.81,-2,510,-931,16.2,3.1,-28.7,16.6,3.2,-28.2,5.73,1.76,-21.4,23.1
2016-01-24 01:42:00,0.0,1.96282,0.00041,410.375,0.038,0.0731,0.0016,139.999,45.000,31280.39580,1.96425,410.735,30.187,45.072,45.000,0.00,0.08,-272.74,-272.81,-1,510,-931,16.2,3.1,-28.6,16.6,3.2,-28.2,5.73,1.84,-21.4,23.1
2016-01-24 01:43:00,0.0,1.96272,0.00048,410.372,0.026,0.0741,0.0013,139.997,45.000,31279.64418,1.96411,410.738,30.184,45.071,45.000,0.00,0.08,-272.76,-272.81,-2,511,-931,16.3,3.1,-28.6,16.6,3.2,-28.2,5.73,1.99,-21.4,23.1
2016-01-24 01:44:00,0.0,1.96309,0.00034,410.404,0.036,0.0740,0.0017,139.998,45.000,31278.26892,1.96454,410.769,30.187,45.071,45.000,0.00,0.08,-272.75,-272.80,-2,510,-931,16.2,3.1,-28.6,16.6,3.2,-28.2,5.73,1.89,-21.4,23.1
2016-01-24 01:45:00,0.0,1.96374,0.00057,410.406,0.038,0.0748,0.0020,140.000,45.000,31279.94496,1.96513,410.775,30.188,45.071,45.000,0.00,0.08,-272.75,-272.80,-1,510,-931,16.3,3.1,-28.6,16.6,3.2,-28.2,5.73,1.76,-21.4,23.1